Simultaneous Nadir Overpasses (SNOs) Predictions

Prediction of SNOs between METOP-A and TERRA Satellite Orbit:

Table of predicted SNOs for the next 14.0 days since TLE Epoch: 3/19/2016
Index Date (METOP-A) Time (METOP-A) Lat,Lon (METOP-A) SZA (METOP-A ) Date (TERRA) Time (TERRA) Lat,Lon (TERRA) SZA (TERRA ) Distance(km) Time Diff (sec)
1 03/21/2016 05:01:39 81.31, 152.35 83.54 03/21/2016 05:01:53 81.31, 152.18 83.53 2.74 14
2 03/21/2016 05:52:20 -81.31, -40.25 96.47 03/21/2016 05:51:20 -81.31, -40.21 96.49 0.71 60
3 03/24/2016 00:36:02 81.31,-141.20 82.47 03/24/2016 00:36:08 81.32,-141.34 82.46 2.33 6
4 03/24/2016 01:26:43 -81.31, 26.24 97.54 03/24/2016 01:25:35 -81.32, 26.30 97.56 1.02 68
5 03/26/2016 19:19:47 -81.31, 117.40 98.66 03/26/2016 19:20:58 -81.31, 117.42 98.62 0.96 71
6 03/
